Tracking 31027 objects as of 19-Jul-2025
HD Live streaming from Space Station
objects crossing your sky now

COSMOS 1678 DEB *

Track COSMOS 1678 DEB * now!
10-day predictions


NORAD ID: 18608
Int'l Code: 1985-077K
Perigee: 679.4 km
Apogee: 691.1 km
Inclination: 74.0 °
Period: 98.3 minutes
Semi major axis: 7056 km
RCS: 0.0077 m2 (small)
Launch date: August 29, 1985
Source: Commonwealth of Independent States (former USSR) (CIS)
Launch site: PLESETSK MISSILE AND SPACE COMPLEX (PKMTR)

Note: This is SATELLITE DEBRIS
Your satellite tracking list
STARLINK-31611
Track 1 satellite(s)




NASA's NSSDC Master Catalog

Two Line Element Set (TLE):
1 18608U 85077K   25199.52212609  .00001810  00000-0  34572-3 0  9997
2 18608  74.0435 357.2407 0008256  92.9703 267.2410 14.64677624 30458
Source of the keplerian elements: AFSPC